RH
99 97 96 94 93 92 90 88 88 90 92 91 91 92 92 91 90 87 85 80 77 74 69 64 56 48 43 41 41 39 38 36 40 48 54 62 70 78 89 100 103 100 99 100 100 101 101 101 99 99 100 100 102 103 102 102 103 102 101 100 100 100 100 99 100 100 99 100 100 101 101 102 104 104 104 105 106 105 106 106 105 104 101 100 100 101 101 100
89 87 85 83 85 85 81 80 84 87 88 89 89 88 87 85 84 81 78 75 71 66 60 53 47 44 43 42 41 41 43 42 46 56 61 65 69 73 81 93 102 104 101 99 99 100 100 100 99 100 100 100 100 100 100 101 100 100 100 100 101 101 100 101 102 101 100 99 100 101 101 101 101 101 101 102 102 102 103 104 105 105 102 101 103 104 103 102
78 77 76 75 77 78 77 77 79 81 82 83 82 81 80 77 75 73 69 66 62 57 52 48 46 46 44 42 41 42 47 50 56 65 66 68 71 75 79 86 94 100 102 101 101 101 100 100 100 99 99 100 100 100 100 100 101 100 100 100 100 98 99 100 100 100 99 99 99 101 104 105 103 102 102 101 100 101 102 104 105 105 104 102 102 103 104 104
71 74 75 76 76 75 78 80 78 78 76 76 77 75 72 70 67 65 63 60 56 53 51 49 49 47 44 41 41 44 49 56 62 67 72 77 81 82 84 85 86 90 93 97 99 100 101 101 100 100 101 100 100 101 100 99 100 100 102 102 99 98 102 102 98 96 96 97 98 99 103 106 105 102 104 104 101 101 101 101 101 100 99 97 94 93 92 92
70 73 76 80 84 86 88 91 93 91 83 77 78 76 73 69 64 61 59 57 55 54 53 52 49 45 44 43 45 49 55 64 70 77 86 91 91 89 88 88 87 88 89 90 91 92 94 94 94 94 94 94 93 95 95 94 94 94 98 98 93 93 97 99 97 94 93 92 93 94 98 102 103 101 101 102 102 102 101 102 101 99 99 99 96 94 91 89
71 75 82 88 92 96 98 102 105 103 97 91 87 82 77 70 65 62 60 59 58 56 54 49 45 46 50 52 57 63 72 80 86 92 97 96 94 94 94 95 95 96 96 96 96 95 96 96 97 96 93 91 89 89 89 89 86 83 84 84 80 79 79 80 81 81 80 79 80 81 83 87 91 93 93 96 98 98 99 101 101 100 98 98 97 96 96 96
72 81 93 99 99 99 101 104 104 104 106 104 95 86 78 70 67 66 64 62 59 55 52 48 49 55 60 65 70 78 86 91 94 100 101 98 99 99 100 100 100 100 100 101 101 100 98 97 96 93 88 85 82 81 78 77 76 71 68 65 61 58 57 56 56 56 57 58 58 59 61 64 68 72 75 79 83 84 87 91 93 94 93 92 92 91 91 91
81 93 101 105 104 100 102 105 106 107 107 103 97 89 79 72 69 68 65 62 58 54 53 56 61 66 72 77 81 85 90 93 98 101 100 100 100 100 99 99 99 98 97 95 92 87 83 81 80 78 76 74 71 69 65 61 59 54 49 46 43 41 41 41 42 42 41 42 43 43 44 47 48 51 54 57 58 61 64 69 73 77 80 81 82 83 84 85
95 101 102 106 105 102 105 107 108 105 102 99 93 84 76 72 71 67 64 60 56 55 59 66 72 81 89 88 88 92 95 97 102 104 102 102 101 100 98 96 94 90 86 82 79 76 73 72 70 67 63 59 53 49 46 43 41 40 40 40 40 39 38 40 41 39 38 39 39 39 39 41 41 42 45 46 45 45 46 48 51 54 58 62 64 66 69 73
105 103 102 103 102 104 107 108 106 101 97 92 83 76 72 72 70 67 64 59 57 59 66 70 74 88 94 89 90 95 94 95 100 101 101 99 96 92 89 85 83 80 78 75 73 71 67 62 57 52 47 43 40 36 37 38 38 40 43 45 44 43 42 44 43 40 40 42 41 41 42 45 46 44 46 47 45 44 42 43 44 45 47 48 50 51 53 55
106 104 103 102 103 105 107 105 102 97 90 79 73 74 74 70 67 66 64 61 62 72 83 84 83 88 89 88 93 92 88 88 90 89 88 85 82 79 77 78 79 78 76 73 67 61 54 48 44 41 39 40 41 40 42 44 44 42 42 44 47 47 48 49 48 46 47 47 45 44 47 50 52 50 49 48 48 47 46 45 44 45 46 46 46 46 47 48
103 104 105 105 104 103 102 99 95 88 78 70 70 74 75 71 70 69 65 67 75 85 91 91 90 88 86 87 88 88 88 87 85 83 80 78 76 77 79 80 78 74 68 62 55 48 43 40 38 38 39 42 45 45 44 44 43 42 41 44 47 50 53 55 54 53 53 51 48 46 49 53 52 51 50 48 48 48 47 47 46 46 47 47 47 47 47 47
106 107 108 107 104 100 96 90 83 77 72 72 72 71 73 72 71 68 69 82 93 95 93 92 94 91 89 90 90 93 94 90 85 80 78 78 79 80 79 76 70 63 55 49 45 41 40 39 40 42 45 47 48 46 44 43 43 45 48 50 51 54 58 59 56 55 54 52 47 45 49 53 51 48 48 46 46 46 45 44 44 45 45 46 46 46 47 48
108 108 107 103 99 94 86 78 73 72 74 76 71 68 71 72 70 67 76 95 100 98 99 99 98 95 93 94 91 90 87 83 79 76 76 77 75 72 67 62 55 50 45 42 41 41 42 44 47 50 50 49 47 47 49 50 50 52 57 55 51 52 57 58 56 53 51 47 44 43 46 50 47 42 41 39 37 36 35 35 34 34 34 35 35 36 37 38
107 104 99 94 88 81 74 69 71 74 74 71 69 68 70 69 67 67 77 93 96 94 93 91 90 89 89 86 79 76 75 74 74 73 71 68 64 59 54 50 46 42 41 41 43 46 49 51 52 52 50 48 50 53 55 57 55 54 56 54 49 48 51 52 52 51 48 46 44 40 38 38 35 31 30 28 27 26 26 26 26 27 26 27 27 27 27 28
102 97 92 86 76 68 68 73 77 75 70 68 70 71 70 69 70 73 78 85 89 86 80 76 75 74 77 74 69 69 68 67 66 64 62 59 56 51 47 43 40 41 42 45 48 50 51 51 51 52 51 51 55 57 56 55 54 52 52 50 46 43 43 43 45 46 44 42 39 33 30 29 26 25 27 27 27 28 29 29 29 29 29 29 29 29 29 29
97 94 89 78 68 67 72 77 74 68 67 69 74 76 78 84 89 91 90 88 83 78 72 70 70 69 69 67 63 63 61 59 58 56 54 51 47 43 39 38 40 43 46 48 51 51 50 50 52 55 56 55 57 57 55 53 51 50 49 47 43 40 40 41 41 39 35 32 29 27 27 28 28 30 32 31 31 33 33 33 32 31 30 29 29 29 28 28
96 91 81 70 69 74 74 69 63 61 64 69 75 79 83 93 99 96 92 85 76 72 71 71 69 67 64 59 57 55 54 54 52 49 45 41 38 36 37 40 43 47 49 48 50 52 51 52 55 60 61 58 55 52 51 49 46 43 42 43 44 43 40 37 33 30 29 28 27 28 29 30 32 35 37 35 34 34 33 32 31 30 29 28 27 27 26 25
94 84 73 71 76 73 64 57 53 54 58 63 70 74 76 81 82 78 72 68 67 68 69 67 62 59 56 54 54 53 51 48 43 39 36 34 35 37 40 45 47 50 54 54 54 55 57 58 59 60 59 55 51 48 46 43 39 39 40 41 40 36 32 29 28 28 28 29 30 32 34 36 38 38 38 37 35 34 33 32 31 30 29 28 28 27 26 26
88 76 75 78 74 62 52 48 46 49 54 59 65 69 70 67 63 60 58 60 62 63 60 57 54 53 53 52 50 47 42 38 35 33 34 35 40 44 48 53 55 55 57 60 60 59 60 60 57 54 51 48 46 43 40 38 38 40 38 34 30 27 26 27 27 27 27 28 32 36 38 38 40 40 39 39 38 38 37 35 34 33 32 30 30 29 28 28
81 79 83 77 63 52 45 40 41 46 51 57 62 65 64 59 56 56 58 59 58 55 53 51 50 50 49 45 41 37 34 34 36 37 38 43 48 54 58 61 62 59 57 59 59 57 55 53 49 46 43 41 39 39 39 40 39 36 31 27 26 27 27 27 27 27 28 31 33 38 42 42 42 43 43 44 43 43 42 40 38 36 34 33 33 32 32 32
79 86 83 67 53 45 40 38 41 46 50 54 56 56 53 51 52 54 55 56 53 50 48 47 46 44 41 37 34 32 33 35 39 43 48 53 58 62 62 61 59 58 57 56 55 51 48 44 41 39 38 39 40 41 40 37 33 29 27 27 28 29 28 27 28 28 30 36 39 42 46 45 44 44 44 46 48 47 45 43 42 40 38 37 37 36 36 35
83 88 75 58 50 44 43 45 47 49 52 54 52 51 51 52 54 55 56 54 49 45 43 43 41 39 37 35 35 36 38 41 45 52 57 61 63 63 61 57 55 54 52 50 48 45 42 39 39 39 40 40 39 36 33 30 27 27 29 30 31 30 30 30 30 30 31 35 40 45 52 51 46 45 45 46 49 51 49 46 45 44 43 42 42 41 40 39
87 84 68 58 53 49 48 47 50 53 54 53 52 53 53 55 58 59 57 51 46 44 43 42 40 39 38 38 39 42 45 49 54 61 63 64 64 60 57 55 53 50 47 44 41 39 39 39 40 39 37 34 31 29 28 29 29 30 31 31 31 30 30 31 32 34 33 34 35 40 52 59 54 47 45 47 50 51 50 48 48 48 49 49 48 46 44 43
88 79 67 63 60 56 50 49 55 57 55 54 52 51 51 55 58 58 54 49 48 48 45 43 42 42 42 42 46 49 52 56 62 66 65 62 60 57 55 53 50 47 43 39 37 37 38 38 36 32 29 27 27 28 29 32 33 34 33 32 32 31 31 31 32 35 36 37 36 35 43 57 64 58 48 47 52 53 52 51 52 53 54 56 55 53 51 48
86 78 72 69 66 62 55 56 60 59 58 56 52 51 51 55 59 58 53 50 51 50 47 45 44 44 45 48 51 53 58 64 66 65 62 58 55 53 52 49 46 43 38 36 37 38 37 34 30 27 26 26 27 29 31 33 34 36 36 35 35 34 34 34 34 35 37 38 39 38 38 47 65 70 58 49 49 51 51 51 54 57 60 61 61 61 61 58
87 81 77 73 71 67 61 62 64 64 64 60 55 55 55 58 61 58 54 53 53 50 47 46 46 47 48 52 56 59 66 69 66 62 58 54 52 50 49 46 43 38 36 37 38 39 37 33 29 26 26 28 30 32 33 34 36 37 37 38 38 38 38 38 38 37 38 40 40 40 38 40 52 61 56 49 47 45 47 49 52 56 59 63 66 67 68 66
90 87 83 78 76 71 66 68 70 71 70 62 59 59 57 60 62 59 56 56 54 50 48 47 47 49 53 58 64 69 71 69 65 59 54 51 50 48 46 43 40 36 37 39 40 41 38 35 32 29 29 30 33 35 36 37 38 39 40 40 40 40 40 40 41 41 40 43 44 43 44 43 47 51 48 46 44 42 43 47 49 50 52 59 64 67 69 71
91 92 88 83 84 80 73 73 74 73 66 58 58 59 58 62 65 61 60 60 56 51 49 49 50 55 62 68 73 75 73 68 63 57 52 51 49 47 45 41 37 36 38 41 44 45 43 42 39 36 34 34 35 37 39 40 40 42 43 43 42 42 43 43 43 44 44 46 47 48 48 47 50 55 52 46 41 38 39 41 43 44 46 50 55 59 63 68
92 93 90 92 95 90 81 79 79 73 63 58 60 60 59 66 69 65 64 64 58 53 52 53 57 64 71 75 76 76 72 66 61 56 54 52 48 45 42 38 36 36 38 40 44 47 48 48 47 45 44 42 41 41 42 43 43 45 46 46 47 46 46 46 44 45 47 49 51 52 54 54 55 59 59 53 46 42 43 42 43 45 46 48 50 55 58 61
96 94 98 107 108 100 88 85 82 73 64 62 61 60 63 70 72 68 68 67 61 56 55 58 64 70 74 76 76 74 70 65 61 57 53 49 46 43 40 39 39 38 38 39 41 45 48 51 53 54 54 53 53 52 52 53 51 52 52 51 52 52 53 54 54 55 56 58 62 63 63 63 62 62 57 51 46 45 46 47 47 49 49 50 52 54 56 56
103 100 106 114 116 107 91 82 76 68 63 62 61 62 69 75 73 69 71 69 62 59 60 64 70 73 76 78 78 76 72 67 63 58 53 49 46 44 43 44 44 44 46 46 48 49 51 55 58 60 61 61 62 62 62 63 63 62 62 61 61 62 63 62 62 63 62 64 67 67 67 68 72 73 59 45 44 47 49 50 51 51 50 49 50 53 57 60
106 105 106 106 107 101 86 74 68 63 60 60 62 67 75 79 75 73 75 70 63 63 66 71 74 77 80 81 82 80 75 70 66 61 55 51 49 47 47 47 48 49 52 52 53 53 54 56 61 65 68 69 72 74 75 75 76 75 74 72 69 67 66 64 64 64 64 68 70 70 68 68 78 82 62 45 47 51 52 53 53 55 54 52 52 54 58 63
102 102 100 94 94 94 85 72 64 60 59 60 65 73 80 83 79 78 77 70 65 67 73 77 78 81 85 87 86 83 78 74 70 65 59 55 53 51 51 52 54 55 57 57 57 57 57 59 62 67 71 72 74 78 80 81 80 79 78 76 74 71 67 62 59 58 60 67 74 75 73 74 89 93 65 46 50 51 52 54 54 58 61 63 65 66 68 69
100 100 97 90 88 92 86 72 63 59 58 62 69 77 84 87 83 82 80 72 68 71 78 81 83 87 90 91 89 86 82 79 75 70 66 63 59 57 55 57 60 61 62 62 61 60 60 59 61 65 68 70 70 70 71 73 74 74 75 75 74 73 69 64 61 55 53 60 72 78 78 83 105 110 80 56 57 56 52 52 51 53 59 66 73 77 80 79
102 101 98 92 89 92 86 69 60 58 58 65 73 80 87 89 88 88 83 75 73 78 83 87 90 93 94 94 91 87 85 82 78 73 70 68 65 61 58 59 61 62 62 62 62 63 65 63 62 63 66 69 70 68 67 69 70 70 72 73 71 71 71 68 67 63 56 58 69 78 82 89 109 119 97 74 71 72 65 58 53 52 53 58 65 71 77 81
104 103 100 95 90 92 86 68 58 58 61 68 76 84 90 92 94 94 84 76 77 84 90 93 95 96 97 95 91 89 89 84 78 76 74 73 69 65 62 61 61 61 62 61 61 65 71 73 70 66 68 73 77 77 76 77 77 75 77 77 74 75 74 69 66 64 60 60 66 78 89 96 107 114 100 79 74 76 73 72 73 73 72 72 74 77 79 84
108 105 101 97 92 91 86 70 58 61 66 71 79 89 97 99 99 93 81 76 81 89 96 98 99 99 99 98 94 93 90 84 79 78 78 77 74 70 67 64 64 65 65 63 63 66 72 79 82 78 76 79 81 84 84 87 88 87 88 88 83 83 81 75 69 63 58 56 57 70 91 104 108 103 90 78 76 76 76 82 88 90 92 92 90 87 84 84
108 105 100 95 90 89 84 69 59 63 71 74 80 94 102 103 98 89 81 83 89 95 101 103 103 102 101 99 97 95 91 85 82 81 80 80 78 74 70 67 67 67 68 66 65 68 72 78 85 85 83 83 86 87 89 94 97 97 99 96 91 90 86 84 84 79 71 63 53 52 74 105 110 89 73 73 78 78 75 77 80 83 90 93 91 86 83 80
103 105 99 92 88 87 81 67 56 62 71 74 83 100 107 103 96 90 89 93 96 99 103 104 104 103 103 100 98 96 90 85 85 84 82 81 79 76 73 70 68 66 68 69 67 69 73 76 83 87 85 85 88 89 92 98 101 104 107 103 97 94 90 89 92 93 88 80 66 46 56 99 114 83 66 75 80 77 73 73 78 84 92 97 95 92 90 87
95 96 95 90 86 82 75 63 55 62 71 78 92 107 109 102 96 94 95 96 98 100 102 103 104 105 104 101 99 96 90 86 86 86 85 83 79 77 75 73 70 67 68 71 69 70 73 75 81 86 86 88 93 94 95 100 103 106 109 107 103 101 95 89 88 89 87 85 76 50 48 92 116 93 79 84 81 77 74 74 81 89 95 98 96 95 95 94
85 87 87 84 82 79 69 58 59 71 81 90 104 111 107 101 98 97 97 96 97 100 101 102 105 105 105 103 98 94 91 90 89 86 86 85 82 80 79 76 74 70 69 73 72 72 75 75 77 82 87 93 97 97 95 96 100 105 107 107 106 102 94 87 81 79 79 79 73 54 52 81 100 94 92 91 82 77 75 77 86 92 94 94 92 92 94 96
88 90 83 77 76 70 59 58 71 87 96 102 109 110 106 103 99 95 93 93 97 100 102 103 103 104 106 103 96 92 93 96 95 90 88 88 85 84 82 80 77 73 71 73 75 75 76 76 75 76 84 97 104 104 101 99 101 104 105 106 105 98 88 82 78 74 77 80 72 62 66 79 85 88 95 96 87 83 84 89 95 95 94 94 94 96 99 101
92 88 80 72 65 55 55 71 89 98 102 105 107 108 108 104 97 89 88 93 98 100 102 102 103 105 105 100 95 94 94 98 99 96 92 91 89 86 83 82 80 77 75 75 74 74 77 80 77 71 75 88 98 100 97 96 97 99 103 107 105 97 85 79 78 77 81 82 72 70 77 79 81 89 94 93 89 89 94 100 99 95 93 96 97 99 100 101
87 80 73 61 51 51 66 88 98 98 100 105 105 107 109 102 90 84 88 94 98 100 101 102 105 106 103 98 98 97 96 98 100 99 96 93 91 87 84 83 82 81 80 78 76 74 77 84 85 78 80 86 89 87 80 78 85 94 102 107 107 100 88 80 80 80 80 75 67 74 82 73 77 92 93 89 89 92 97 99 96 94 95 98 100 101 102 102
79 69 56 47 49 62 81 96 98 97 102 106 105 108 109 96 81 82 90 96 99 100 101 104 107 106 100 98 101 100 99 102 103 101 98 95 93 90 86 85 85 85 86 86 83 78 78 87 90 84 89 98 100 94 81 75 84 95 101 106 108 102 91 84 83 82 81 73 65 77 83 71 76 90 86 83 88 91 93 94 94 96 100 102 104 105 105 106
59 47 42 48 58 74 91 99 97 100 105 105 106 111 104 86 78 85 93 98 100 100 102 105 106 103 100 100 101 100 101 105 107 104 99 97 98 96 92 91 91 93 96 97 95 87 82 87 90 84 88 102 107 101 90 85 91 96 100 103 103 98 91 88 86 87 89 81 73 80 81 72 81 92 86 87 95 95 95 97 99 101 104 105 106 106 108 110
37 38 47 56 65 82 97 96 95 103 105 103 109 111 95 78 81 91 96 99 102 102 105 107 102 100 101 101 101 101 101 105 108 106 103 102 103 100 98 98 99 102 106 105 102 96 89 89 91 85 87 103 109 101 93 90 90 94 99 98 92 90 91 91 94 99 100 91 83 83 79 77 89 97 94 95 98 95 95 97 97 97 97 96 94 94 96 97
37 49 56 60 76 97 102 95 97 104 103 104 109 101 83 78 89 97 99 102 105 105 104 103 100 100 100 100 101 102 103 105 108 106 103 103 103 100 99 102 105 106 107 106 103 99 94 93 93 86 86 101 108 98 90 86 84 89 96 93 89 91 95 97 98 99 97 91 89 89 85 85 92 93 87 84 80 75 72 70 67 65 62 59 56 54 55 55
48 59 62 70 91 107 106 102 106 105 102 104 99 85 79 86 95 99 101 104 107 106 102 100 100 100 100 100 102 103 104 106 108 106 102 100 100 99 99 104 109 107 104 102 101 101 97 95 95 88 85 98 101 91 85 83 81 85 89 88 90 93 95 96 95 91 89 88 89 88 85 83 79 70 61 54 48 43 41 39 39 38 35 33 32 32 32 33
55 60 64 77 94 104 104 104 105 104 101 94 83 77 83 92 97 100 103 104 105 103 100 99 100 100 100 101 101 103 103 103 105 105 100 98 99 101 102 105 107 105 102 99 100 102 98 95 94 87 83 91 94 86 83 83 83 86 88 90 92 90 87 88 88 85 84 83 80 77 72 63 51 41 35 33 32 32 32 32 33 32 30 29 28 29 29 28
57 59 68 82 92 96 99 100 101 101 94 80 74 81 90 97 101 103 105 106 105 101 99 100 100 99 100 101 101 103 102 101 103 104 100 99 102 106 107 105 103 101 101 101 101 101 99 96 96 89 82 87 91 84 81 85 90 92 92 90 86 80 79 82 84 85 87 89 84 71 55 41 32 29 28 27 28 29 29 31 31 29 26 24 24 24 24 24
Wind_Speed
48 51 54 56 57 58 59 59 58 57 57 58 58 59 59 60 61 61 61 62 62 61 60 59 59 57 53 51 48 45 42 39 36 33 32 31 30 30 29 29 30 30 30 32 34 35 36 38 38 38 39 40 41 43 45 44 45 46 46 48 51 52 52 52 53 53 51 50 50 52 54 56 58 57 57 57 58 59 60 61 61 62 61 62 63 64 64 64
45 48 49 51 52 54 55 54 53 54 54 55 55 56 58 58 58 59 59 60 59 58 57 56 55 51 48 44 42 40 38 37 33 32 32 31 31 30 30 31 32 33 34 35 35 36 37 39 41 41 42 43 45 46 47 49 50 50 50 52 54 54 54 55 57 57 56 56 56 56 58 60 60 60 59 59 60 62 63 63 65 65 65 65 66 67 67 68
43 44 44 45 47 48 48 49 49 50 51 52 53 54 56 56 56 56 56 56 55 54 53 51 48 45 42 39 37 36 35 34 31 30 31 30 30 30 31 31 33 34 36 38 40 40 41 42 44 45 46 47 49 51 51 52 54 54 54 56 58 58 58 60 61 61 61 60 61 61 64 65 65 65 65 64 65 66 67 67 68 68 68 68 69 70 71 71
41 41 40 41 42 43 43 44 45 46 48 49 50 52 52 53 53 52 52 52 51 50 48 46 42 40 38 36 34 33 32 31 30 29 29 29 29 29 30 31 32 34 35 38 40 42 44 46 47 48 50 50 52 55 55 56 57 57 58 60 61 60 61 63 65 65 64 63 63 63 65 67 68 68 68 67 67 69 70 70 70 69 70 71 71 72 73 74
39 38 38 38 38 38 38 39 40 42 44 45 46 47 48 49 49 48 48 47 46 45 43 40 38 35 33 32 31 30 29 28 28 28 28 29 30 30 31 32 33 34 35 37 39 41 43 45 47 49 51 52 54 56 57 58 59 59 61 63 63 62 63 65 67 67 68 67 66 66 67 68 70 70 70 70 70 71 72 72 73 73 73 73 73 74 75 76
37 36 36 35 35 36 36 36 37 39 41 41 42 43 44 45 45 44 43 43 42 40 38 35 33 31 29 28 27 26 26 26 28 28 29 30 32 32 33 34 35 36 38 39 41 43 45 47 49 51 52 54 55 56 58 59 61 61 62 65 65 65 65 67 68 69 70 70 70 70 70 71 73 74 74 74 74 75 75 75 77 77 77 77 77 77 77 78
35 34 34 34 35 36 35 36 37 38 39 39 39 41 42 42 41 40 40 39 37 35 33 31 29 27 26 25 25 25 26 27 29 30 31 32 32 33 34 36 38 39 41 43 45 47 49 51 53 55 56 57 58 60 60 61 63 64 64 65 66 66 66 67 68 69 70 71 71 71 71 72 74 75 76 77 78 78 78 78 80 82 82 82 82 81 82 82
33 33 34 36 36 36 36 36 37 37 37 38 39 41 41 39 38 37 36 35 33 31 30 28 26 25 25 26 27 28 28 29 30 31 32 33 35 37 39 41 43 44 46 49 50 52 54 55 56 57 58 59 59 60 60 60 61 62 62 63 63 63 63 63 64 65 66 67 67 67 68 69 71 72 73 76 78 78 78 79 81 82 84 85 85 85 85 86
33 34 36 37 36 35 35 36 36 37 38 39 40 40 39 37 36 35 33 32 31 29 27 26 25 24 26 28 30 31 31 33 34 35 36 38 40 41 43 45 47 48 50 52 53 55 55 56 57 57 57 57 57 57 58 57 58 58 59 60 60 60 60 60 61 62 61 62 62 62 63 64 66 66 67 71 73 73 73 74 76 78 80 83 85 86 87 88
34 35 36 36 35 35 35 36 37 39 39 40 40 38 37 35 34 32 32 30 28 27 27 27 27 27 29 32 34 35 35 36 38 39 40 42 43 45 46 48 49 51 52 54 55 55 56 56 56 56 56 56 56 56 56 57 57 57 57 58 59 59 59 59 60 60 60 61 60 60 60 62 64 63 64 67 69 69 69 69 70 72 74 77 79 80 82 84
35 36 35 35 35 34 35 37 39 39 39 39 37 35 35 33 32 31 30 28 26 25 26 27 28 30 32 34 36 37 38 39 40 42 43 44 45 46 48 49 51 52 54 55 55 56 56 56 55 55 55 56 57 57 57 57 57 57 57 57 57 58 59 60 61 61 61 62 61 60 61 63 65 66 66 67 69 70 70 69 70 71 72 74 75 76 77 79
35 35 35 35 35 36 38 39 39 38 38 36 34 32 32 32 31 30 28 26 25 25 27 28 29 31 34 35 36 37 39 40 42 43 44 46 47 48 50 51 53 54 54 55 55 55 55 55 55 55 56 56 57 57 57 57 57 57 57 57 57 58 59 61 62 62 63 63 63 62 62 65 67 68 69 69 69 71 71 71 71 72 73 74 75 76 77 78
35 35 35 36 36 38 39 39 38 36 35 33 32 31 30 30 29 28 26 25 26 27 29 30 31 33 35 37 38 39 41 43 44 45 46 48 49 50 51 52 53 54 54 55 55 55 55 55 56 56 56 57 57 57 57 57 56 57 57 58 58 58 60 63 63 63 65 65 64 63 62 67 69 67 68 68 68 69 69 70 70 71 72 73 75 76 77 78
34 34 36 36 37 38 38 36 34 33 31 31 31 29 29 29 28 27 26 27 28 29 31 32 33 35 37 39 40 42 43 45 46 47 48 49 50 51 51 52 53 53 54 54 54 54 55 55 56 56 56 57 56 56 57 57 58 57 59 60 60 59 61 64 65 65 66 66 65 63 61 65 67 65 65 65 65 65 65 66 67 68 68 69 71 72 73 75
34 35 36 36 37 36 34 32 31 30 30 30 29 28 28 27 27 27 28 29 31 33 34 36 37 39 40 42 43 44 44 46 47 48 48 49 49 50 51 51 52 52 53 53 53 54 54 55 55 56 56 56 56 56 57 58 59 59 60 62 62 61 62 63 65 65 65 65 64 62 59 61 63 61 60 61 61 61 60 61 62 63 64 64 66 66 68 69
34 35 35 35 35 33 31 30 30 30 29 28 28 28 27 26 27 27 29 31 33 35 37 38 39 41 42 43 44 44 45 46 46 47 47 48 49 50 51 51 51 52 52 52 53 53 54 54 54 55 56 56 56 58 59 60 61 61 62 64 64 62 62 62 62 63 62 61 61 59 56 57 58 56 57 57 57 56 57 57 58 59 60 61 61 62 63 65
34 35 35 34 32 30 29 29 29 28 28 28 27 26 26 26 26 28 30 32 34 36 37 38 40 41 42 43 44 44 45 45 46 46 47 48 49 49 50 50 50 51 51 52 52 53 54 54 54 56 57 57 58 60 61 62 62 63 63 65 64 63 61 60 60 59 58 57 56 54 53 54 53 52 54 55 53 52 53 54 55 56 57 58 59 60 61 62
34 35 34 31 29 28 28 27 27 27 27 28 27 27 27 27 28 30 32 34 35 37 38 39 41 42 43 44 44 44 45 45 46 46 47 48 48 48 48 49 49 50 51 51 52 53 54 54 55 56 58 60 61 62 63 63 63 62 62 62 62 61 59 57 56 54 53 53 52 51 51 50 50 49 50 52 50 49 49 50 51 52 54 55 56 57 58 59
35 34 31 28 27 27 27 27 27 27 27 27 28 28 29 30 32 33 34 36 37 38 39 41 42 42 43 43 44 44 44 45 45 46 46 47 47 47 48 48 49 49 51 52 52 54 55 56 56 58 60 61 63 63 64 63 62 61 60 59 58 57 54 52 51 49 49 50 49 49 49 48 48 47 47 49 48 47 47 47 48 49 50 52 53 54 54 55
34 31 28 27 27 26 26 26 26 26 26 27 28 29 30 32 33 34 35 36 37 38 39 40 41 41 42 42 43 43 44 44 45 45 45 46 46 47 48 48 50 50 51 52 53 55 55 57 58 59 61 62 63 63 62 61 60 59 58 55 53 51 50 49 49 48 47 47 47 47 48 46 47 47 46 47 48 47 47 47 48 49 50 51 52 52 53 53
32 28 27 26 26 26 25 25 24 25 25 26 28 29 31 32 33 33 34 35 37 38 39 39 40 40 40 41 41 42 42 42 43 44 45 45 46 47 47 48 50 51 52 52 54 55 56 58 59 60 61 61 61 61 60 59 57 56 54 51 49 49 48 47 47 47 47 47 46 46 48 47 46 46 46 47 48 49 49 49 49 50 51 51 52 52 52 52
29 26 26 26 25 24 23 23 23 24 25 27 28 29 30 31 31 32 33 34 35 37 37 37 38 38 39 39 40 40 41 41 42 43 44 45 45 47 48 49 50 51 52 53 55 56 57 58 59 59 59 59 59 59 58 56 53 51 50 49 48 48 48 47 47 47 46 47 47 47 49 49 48 47 46 46 48 50 50 49 50 51 52 52 52 52 52 53
27 26 26 25 24 22 22 22 23 25 26 27 28 29 30 30 31 31 32 33 34 35 36 36 36 37 37 38 39 40 40 41 42 43 44 45 46 48 49 49 50 51 52 53 55 57 57 58 58 58 58 57 57 55 54 52 50 48 47 47 47 46 47 48 48 48 47 46 47 47 50 53 52 50 49 48 48 50 51 50 50 51 52 53 53 53 53 54
27 26 25 24 23 22 22 23 24 25 26 27 28 28 29 30 30 31 32 33 34 35 35 35 35 36 37 38 39 39 40 41 42 43 45 46 47 48 49 49 50 52 53 54 54 55 55 55 56 55 55 54 52 50 49 48 48 47 47 46 47 46 46 47 48 49 50 49 48 46 48 54 57 55 52 50 49 49 50 50 50 51 53 54 55 56 56 56
27 26 25 23 22 23 23 23 24 25 26 27 27 28 28 29 30 31 32 33 33 34 34 34 35 36 37 38 38 39 40 41 42 44 45 46 47 48 48 50 51 52 53 52 52 52 52 52 52 51 51 49 47 46 46 46 47 47 47 46 47 47 47 47 47 48 50 52 52 48 46 51 60 62 56 52 52 51 50 49 49 51 53 55 57 58 58 58
28 27 25 23 23 24 24 24 25 26 27 27 27 28 29 30 30 31 32 32 32 33 34 35 35 36 37 38 39 40 40 42 43 44 45 46 47 47 49 50 51 51 51 50 49 49 49 49 49 48 47 46 45 44 44 45 45 46 47 47 47 47 48 48 48 47 49 52 54 52 47 47 57 66 61 55 54 54 52 50 49 51 53 56 58 59 60 60
28 27 25 24 24 25 25 25 27 28 28 29 28 29 30 30 31 31 32 32 32 33 34 35 36 37 37 38 39 40 41 42 43 45 45 46 47 48 49 50 50 49 48 48 47 47 46 46 46 45 45 44 44 44 44 44 45 46 46 47 47 47 48 48 49 49 48 51 55 54 52 48 54 65 64 58 57 55 54 54 52 53 55 57 60 60 61 62
28 28 27 26 26 27 26 27 28 29 31 30 30 31 31 31 31 32 32 32 33 34 35 36 36 37 38 38 40 40 41 43 44 45 46 46 47 48 49 48 47 47 46 46 46 45 45 44 44 44 44 44 44 44 45 45 45 46 46 47 47 47 48 48 49 49 49 51 54 55 55 52 55 65 65 59 57 54 54 56 56 55 56 59 61 62 63 63
28 28 28 27 27 27 27 28 30 31 32 31 31 32 32 32 32 32 32 33 34 35 35 36 36 37 38 39 40 41 42 44 45 46 46 47 48 48 48 47 45 45 45 44 45 45 44 43 43 43 43 43 43 44 44 45 45 46 46 47 47 46 47 48 48 48 49 50 52 54 56 54 55 64 67 62 57 54 53 55 56 56 57 59 62 63 64 65
28 28 28 27 28 28 28 29 31 33 33 33 32 33 33 33 33 33 33 34 35 36 36 37 37 38 38 39 40 42 43 45 46 46 47 48 48 48 47 46 45 44 44 43 43 43 43 43 42 42 42 41 42 42 43 44 45 45 45 46 47 46 46 48 48 47 48 49 52 53 56 57 56 61 66 64 60 55 53 54 55 57 57 58 60 63 64 65
28 28 27 27 28 29 29 30 32 34 35 35 34 34 35 34 34 34 34 35 36 37 37 37 38 38 39 40 41 43 45 46 47 48 48 49 48 47 46 46 46 45 45 45 44 44 44 44 43 42 42 42 42 41 42 43 43 44 44 44 44 45 45 46 46 46 46 47 50 53 55 58 60 62 64 63 61 57 53 53 54 55 55 56 57 60 62 64
30 29 28 28 29 30 31 32 34 36 36 35 35 35 35 35 35 35 35 36 37 37 37 38 38 39 40 41 42 44 46 47 49 50 50 50 49 48 47 47 47 47 47 47 47 46 46 45 45 44 43 42 43 43 43 44 44 44 45 44 44 43 42 43 43 43 44 45 48 50 53 56 61 65 65 61 59 56 54 53 53 54 55 55 56 57 60 62
31 31 31 30 30 31 32 34 36 37 36 35 35 35 36 36 36 36 36 37 38 38 38 38 39 39 40 42 43 46 48 49 51 52 51 51 50 49 49 48 48 48 48 48 48 47 47 47 47 46 46 45 44 45 45 46 46 46 46 46 46 44 42 41 39 38 39 41 45 48 50 53 58 65 66 58 54 54 53 52 52 53 54 55 55 56 57 60
33 33 33 32 32 32 33 35 36 37 36 35 35 36 36 37 37 37 37 38 38 38 38 39 39 40 41 43 45 47 49 50 52 53 53 52 51 51 50 50 49 49 49 49 49 49 48 47 46 47 47 46 46 45 46 47 47 48 48 49 49 48 46 44 41 37 34 35 41 46 48 52 58 67 66 57 52 51 50 50 50 50 50 51 53 54 56 59
34 35 35 34 34 34 35 36 37 37 36 35 35 36 37 38 38 38 38 39 39 39 39 40 40 41 42 44 46 48 50 52 53 53 54 54 53 52 51 50 50 50 49 49 49 49 49 48 46 46 47 47 47 47 47 48 49 50 51 51 52 52 52 50 47 43 37 34 38 43 46 51 58 68 69 62 57 55 53 52 51 49 48 48 50 52 55 60
35 36 37 36 36 36 37 37 37 37 35 35 36 37 37 38 38 39 40 40 39 39 40 40 41 41 43 45 47 49 51 53 53 54 54 54 54 53 52 51 50 50 49 49 49 50 51 51 49 48 48 49 50 50 50 51 52 52 53 54 54 55 55 54 52 50 45 40 39 41 44 48 55 65 68 65 63 62 61 60 58 57 54 52 52 54 57 61
36 37 38 38 38 38 38 38 37 36 35 35 36 37 37 38 38 39 40 39 39 40 40 41 41 42 44 46 48 51 53 53 54 54 55 55 54 54 53 52 51 51 50 50 50 49 50 52 53 52 51 52 53 53 54 54 55 56 56 57 57 58 59 58 56 54 51 46 42 40 41 45 55 65 66 65 65 64 64 65 64 64 63 61 61 62 62 63
37 38 39 40 40 40 40 40 38 37 36 36 37 38 38 38 39 40 40 39 39 40 41 41 42 43 45 47 50 52 53 54 54 55 55 55 55 55 54 53 52 52 52 51 51 50 49 51 54 55 54 55 55 55 56 57 58 58 59 60 60 60 61 61 60 58 55 52 47 41 37 42 56 66 65 64 65 65 65 65 65 65 65 66 66 67 67 67
38 38 39 41 41 41 41 41 39 38 37 38 39 39 39 39 40 40 40 40 41 42 42 42 43 44 46 48 51 53 54 55 55 55 55 55 56 55 55 54 53 53 53 53 52 51 50 50 52 55 55 56 56 56 56 57 59 59 60 61 61 61 62 62 62 63 61 59 54 46 37 41 57 67 64 64 66 67 67 66 66 67 67 68 69 70 71 71
40 40 41 42 43 42 42 42 40 39 39 40 40 39 39 39 40 40 40 41 42 42 42 42 43 45 47 50 52 54 55 55 56 56 56 56 56 56 56 55 55 54 54 55 53 52 52 51 52 55 56 57 58 58 57 57 58 59 60 61 62 62 63 62 62 63 64 64 64 57 42 43 60 68 66 67 70 71 71 70 69 70 71 72 73 74 75 76
42 42 43 43 43 43 43 42 40 39 40 40 40 39 40 40 40 40 41 42 43 42 42 43 44 46 48 51 53 55 56 56 57 57 57 57 56 56 56 56 56 55 55 56 56 54 53 53 53 55 57 58 60 60 59 58 58 59 61 62 63 63 65 65 62 63 64 65 70 67 51 47 61 69 68 70 73 73 73 72 71 72 73 75 76 77 78 79
43 43 44 44 44 43 43 41 39 39 40 39 39 39 40 40 40 40 42 43 42 42 42 44 45 47 50 52 54 56 57 57 58 58 58 59 58 58 58 58 57 57 57 57 57 56 56 56 55 55 57 59 61 61 60 59 59 60 62 64 64 65 67 68 66 64 64 65 71 71 59 53 62 67 68 72 74 74 74 73 73 74 76 78 79 80 81 81
44 44 44 44 43 43 42 40 39 39 39 39 39 40 40 41 41 41 42 42 42 42 43 45 47 49 51 54 55 56 56 58 60 60 60 60 60 60 60 60 60 59 59 59 59 58 58 59 58 55 55 57 60 61 61 61 60 61 63 65 67 68 68 69 69 68 66 67 72 72 66 62 64 68 70 74 76 76 76 76 76 78 79 80 81 82 83 84
45 45 45 44 43 42 40 39 39 39 39 38 39 40 41 41 42 42 43 42 42 42 44 46 48 50 53 55 56 56 56 57 59 61 61 61 61 62 61 62 62 62 62 61 61 60 61 62 63 59 56 56 57 59 60 59 60 61 64 67 69 71 72 71 72 73 72 72 73 74 73 69 68 72 76 78 79 78 79 81 82 82 82 83 84 85 85 86
46 45 45 44 43 40 39 39 39 39 38 39 40 41 42 42 43 43 42 42 42 43 45 46 49 52 54 56 57 57 57 58 59 61 62 62 63 63 63 64 64 65 65 65 64 63 62 65 67 65 63 62 62 62 63 61 62 63 65 69 73 75 76 75 76 77 78 77 73 75 80 76 71 76 82 82 83 83 83 84 85 84 84 84 84 85 85 86
46 45 44 43 41 38 38 39 39 39 39 39 41 42 42 43 43 42 42 42 42 44 46 48 50 53 55 55 56 57 58 60 61 61 62 63 63 64 65 66 67 67 68 69 68 67 64 65 68 67 66 67 68 68 69 67 65 66 67 70 75 79 79 80 80 81 84 84 77 77 85 83 78 81 84 83 84 85 85 85 85 84 84 84 84 84 84 85
46 45 43 40 38 37 37 38 39 39 39 40 42 43 43 44 43 42 41 42 43 45 47 49 51 54 55 56 56 57 58 60 62 63 64 64 65 66 67 68 69 70 72 73 73 72 69 67 69 68 66 67 69 70 71 70 68 68 69 72 76 80 81 82 84 85 89 91 85 83 87 87 86 89 88 85 86 86 85 86 86 86 86 86 86 86 86 87
44 42 40 38 37 37 38 39 39 39 40 41 42 44 44 43 42 41 42 43 44 46 48 51 53 54 55 56 56 57 58 60 62 64 65 66 67 68 68 70 71 73 74 76 76 76 74 71 71 70 67 68 71 71 71 71 71 71 73 75 77 80 83 85 87 89 93 95 92 90 89 87 88 91 90 88 88 88 87 88 89 89 91 91 90 89 89 89
41 39 38 37 36 37 38 39 39 39 41 42 43 44 43 42 41 41 42 44 46 48 50 52 54 54 55 56 57 58 59 60 62 63 65 66 67 69 69 70 73 74 76 77 77 78 77 75 74 73 69 69 72 73 73 73 73 73 75 78 80 82 85 87 89 91 94 96 95 94 92 89 89 91 90 90 91 90 90 91 91 92 93 93 92 90 90 90
38 37 37 36 35 37 39 39 40 40 42 43 44 43 42 41 41 42 43 45 48 50 51 52 53 54 55 56 57 59 61 62 63 64 65 67 68 70 71 72 74 75 77 78 78 79 79 78 78 77 73 71 74 75 74 74 74 75 77 80 82 84 86 88 91 92 94 94 94 94 93 92 92 93 93 92 92 91 91 91 91 92 93 92 91 89 89 89
37 37 36 35 35 38 39 40 41 42 43 43 43 42 41 41 41 43 46 48 50 51 52 52 53 54 55 57 58 60 62 64 65 66 68 69 70 72 73 74 76 77 78 78 79 80 81 80 81 80 76 74 76 77 76 77 78 80 82 83 85 87 88 90 92 93 94 95 95 95 97 97 96 95 94 92 91 90 90 91 92 93 92 92 91 91 91 90
36 36 36 36 37 39 40 41 42 43 43 43 42 41 41 41 43 45 47 50 51 52 53 53 53 54 55 57 59 61 63 64 66 68 70 72 73 74 75 76 78 79 79 80 81 81 82 83 83 83 80 77 79 81 80 81 83 85 86 87 88 90 90 91 92 94 97 100 101 101 101 99 98 96 94 91 90 90 91 93 96 97 95 93 92 93 93 92
Wind_Direction
235 238 240 243 244 246 247 249 250 251 253 255 257 259 261 263 265 266 268 270 272 274 276 277 279 280 280 280 280 280 278 277 277 278 277 276 274 272 269 264 262 263 265 268 271 272 272 272 272 272 271 270 270 269 270 270 269 269 269 268 267 267 267 266 265 264 263 262 263 263 264 263 263 264 265 265 265 265 264 264 264 262 261 261 261 262 262 261
236 239 241 242 244 246 248 249 250 251 253 255 257 259 260 262 264 266 268 270 272 274 275 276 278 279 279 279 278 277 277 276 276 276 277 277 276 275 272 266 262 260 260 262 265 267 268 268 268 268 267 267 267 267 268 269 269 269 268 267 267 267 267 266 265 265 264 264 264 264 265 264 263 263 263 263 263 263 264 264 264 264 263 263 262 262 262 262
236 239 242 243 245 247 249 250 250 251 252 254 256 258 260 262 263 266 268 270 271 273 274 275 277 278 277 276 275 274 275 276 276 276 277 279 280 280 277 273 269 265 263 262 263 264 266 267 267 267 266 267 268 268 268 269 270 270 269 268 268 268 267 267 266 266 265 264 264 264 265 265 265 265 264 263 263 264 263 263 263 263 263 263 263 263 263 262
238 240 242 244 245 247 249 251 252 252 252 253 256 257 259 261 263 264 266 268 270 272 273 275 276 276 275 274 273 273 274 276 276 277 279 281 281 281 280 277 275 272 270 268 266 266 267 268 269 270 269 269 270 271 270 270 271 271 271 270 269 269 269 269 268 268 267 266 265 264 264 265 265 265 266 265 265 265 264 263 263 263 263 263 263 263 263 263
238 240 241 242 245 247 248 250 252 253 254 254 256 258 259 261 262 264 266 268 269 271 273 274 274 273 274 274 274 274 275 276 277 277 278 279 279 279 279 279 279 279 278 276 275 273 272 272 272 272 272 272 272 272 273 273 272 272 272 272 271 271 270 270 270 270 269 268 267 266 265 266 266 266 266 266 265 265 265 265 265 264 263 263 263 263 263 263
235 237 239 241 243 244 246 247 250 253 256 257 258 259 260 262 264 266 267 269 270 271 271 271 271 271 272 273 274 275 275 276 276 278 278 279 280 280 280 280 280 280 279 278 278 278 277 276 276 275 275 275 275 275 275 275 276 275 274 274 274 274 273 272 272 271 271 271 270 268 267 267 267 266 266 266 265 265 265 266 266 266 265 264 264 263 263 262
233 234 236 238 240 242 243 245 248 251 256 258 259 260 262 264 267 268 269 269 270 270 270 270 269 269 270 272 272 272 273 275 276 278 279 279 279 277 276 275 275 275 276 277 277 278 278 278 278 278 278 278 278 278 277 278 278 278 277 276 276 276 275 275 274 273 273 272 271 271 270 268 268 267 267 266 265 265 265 265 265 266 266 266 265 264 263 263
230 231 232 235 238 241 243 245 248 250 253 255 258 261 264 267 268 268 268 268 268 269 269 269 268 269 272 273 273 274 274 275 276 276 276 276 275 274 274 274 275 276 278 279 280 280 280 281 281 281 281 281 280 280 279 279 279 279 279 279 278 278 277 277 276 275 274 274 273 273 272 271 270 269 269 268 267 266 266 265 265 265 266 266 266 265 264 264
227 228 230 233 238 241 244 246 247 248 251 255 258 262 266 268 268 268 267 267 267 267 266 265 266 269 272 273 273 273 274 274 274 274 274 274 275 275 276 277 279 280 281 282 282 283 284 284 284 284 284 283 282 281 281 281 281 281 282 282 282 282 281 280 279 278 278 277 276 276 275 274 273 272 272 271 271 270 268 268 267 267 267 267 267 266 266 265
224 226 229 233 237 241 243 245 247 250 253 256 260 265 267 267 267 266 266 266 267 267 267 267 267 267 269 270 272 272 272 273 273 274 275 276 277 278 279 281 282 283 284 285 286 287 287 287 287 286 286 286 286 286 286 286 286 286 286 286 286 286 285 284 283 283 282 281 281 280 280 279 278 277 275 274 274 273 272 271 270 269 268 268 268 268 268 267
223 226 230 234 237 240 243 246 249 252 256 260 264 267 268 267 266 265 265 266 267 268 270 271 270 269 270 272 273 274 275 275 275 276 277 279 280 281 283 284 285 286 287 288 288 289 289 289 288 288 288 289 289 289 289 289 289 288 288 287 287 287 287 286 285 285 285 284 283 283 282 281 280 279 277 276 276 276 275 274 273 272 271 270 270 269 269 269
225 227 231 234 237 240 244 247 252 256 260 265 267 267 267 266 265 264 265 266 269 270 272 272 273 273 274 275 276 277 277 278 278 279 280 282 283 284 286 287 288 288 289 289 289 290 290 290 290 290 290 290 290 290 290 289 289 289 288 288 287 287 287 286 286 286 285 284 284 283 283 282 280 279 279 278 277 277 276 275 274 273 272 272 271 271 270 270
227 230 233 235 238 241 246 251 256 261 265 268 267 265 264 263 263 262 263 265 269 273 275 275 275 275 275 276 277 277 278 279 281 282 283 284 286 287 287 288 289 289 289 290 290 291 291 291 291 291 291 291 290 290 290 290 290 290 290 289 289 289 289 288 288 287 286 286 285 285 284 283 282 281 280 279 278 277 277 276 276 275 274 273 272 272 271 271
229 232 235 237 241 245 250 256 261 265 267 267 266 264 262 261 261 261 259 259 263 267 269 270 270 272 273 273 275 277 279 281 283 284 285 286 287 288 288 289 289 290 290 291 291 291 291 291 291 291 291 291 291 291 292 292 292 293 292 291 291 291 290 289 289 289 288 287 287 286 285 284 283 283 282 281 280 279 279 279 278 277 276 275 274 273 273 272
231 234 237 241 245 250 256 262 265 266 266 265 264 262 261 261 261 260 258 258 260 262 264 265 268 270 272 274 277 279 281 282 284 285 286 288 288 289 290 291 291 291 291 291 291 291 291 291 292 291 291 292 292 293 293 293 294 294 293 292 292 292 291 290 290 289 289 290 289 288 287 285 284 284 284 283 282 282 281 280 279 278 277 277 276 275 275 274
233 237 240 245 250 256 261 264 264 264 265 264 263 262 262 264 264 264 264 263 264 265 267 270 272 274 276 278 280 282 283 284 285 287 288 289 290 291 292 292 292 292 291 291 291 291 292 292 292 292 293 294 294 294 295 295 295 295 295 294 294 293 292 291 291 290 290 289 289 289 288 286 285 286 285 283 283 284 283 282 281 281 280 279 278 277 276 276
235 240 244 250 256 261 262 262 262 263 263 263 263 262 263 265 266 267 268 268 269 271 274 277 278 280 281 282 283 284 286 287 289 290 290 291 291 291 292 292 292 292 292 292 292 292 293 293 294 294 295 296 296 296 296 296 296 295 295 295 295 295 294 293 292 291 291 289 288 288 287 285 286 286 285 284 284 284 283 283 283 283 282 281 280 279 278 278
238 243 248 255 260 261 261 261 262 262 262 261 261 260 260 261 263 265 268 271 274 276 279 281 282 283 284 285 287 288 290 291 291 292 292 292 292 292 292 292 293 293 293 294 294 294 295 296 296 296 297 297 297 297 296 296 296 296 295 295 295 294 294 293 292 291 291 290 289 289 287 286 286 285 285 285 285 284 283 283 283 283 283 283 282 280 280 279
240 246 252 257 259 260 261 262 262 263 263 262 261 260 261 261 263 267 271 274 277 280 281 283 284 285 287 289 290 291 292 292 292 292 292 293 293 294 294 295 295 295 296 296 297 297 298 298 298 298 297 297 297 297 297 296 297 296 296 295 294 293 293 292 291 290 289 289 289 288 287 287 287 286 285 286 286 286 286 286 286 286 285 285 284 282 281 280
243 249 254 257 259 261 263 264 264 264 264 264 263 263 264 266 269 273 277 279 281 283 284 285 287 288 290 291 291 292 292 293 293 294 294 295 296 296 297 297 298 298 298 298 298 299 299 299 298 298 298 298 297 297 297 297 297 297 297 296 295 294 293 293 292 291 290 289 289 289 288 287 287 288 288 289 290 290 291 291 291 290 289 287 286 284 283 282
245 250 253 257 260 263 265 266 266 265 266 267 267 268 270 273 276 279 281 283 284 285 286 287 289 290 290 291 292 292 293 294 295 295 296 297 298 298 299 299 299 300 300 300 300 300 300 299 299 299 298 298 298 298 298 298 298 298 297 297 296 295 295 294 293 293 292 291 291 290 290 289 289 289 290 291 293 293 294 294 293 292 290 288 286 284 283 282
245 249 253 258 262 266 269 270 270 270 271 272 273 274 276 278 280 282 284 285 286 287 288 289 290 291 292 293 294 295 296 296 297 298 299 299 300 300 300 301 301 301 302 301 301 301 301 301 301 300 300 300 299 299 299 298 298 298 298 298 297 297 297 296 295 294 294 293 293 293 292 291 290 289 290 291 292 293 293 293 293 291 289 287 285 284 283 282
244 250 256 260 265 270 273 274 275 275 275 277 278 280 281 283 284 286 288 289 290 290 291 292 293 294 295 296 298 299 299 299 300 300 301 301 302 302 303 303 304 304 304 304 304 303 303 303 302 302 301 301 300 300 300 300 300 299 299 299 299 299 298 298 297 296 295 293 293 294 294 293 292 291 290 290 291 291 291 292 291 290 289 287 285 284 283 283
246 253 257 263 269 273 274 275 276 277 279 281 283 285 287 289 290 291 293 294 294 294 294 295 296 297 298 300 300 301 301 301 302 302 302 303 304 305 306 306 306 306 306 306 305 305 304 303 303 302 301 301 301 301 302 302 302 301 301 300 299 299 299 298 298 297 297 296 294 294 294 294 294 292 291 291 290 289 289 290 290 289 288 287 286 285 284 283
248 254 259 265 271 275 277 279 279 280 283 285 287 291 293 294 295 296 296 297 297 296 297 298 300 301 301 302 302 302 303 303 303 303 304 305 306 307 308 308 308 308 307 307 307 306 305 305 304 304 303 303 303 303 303 303 302 302 302 301 301 301 300 300 299 298 298 298 297 297 296 295 294 293 292 292 291 289 288 288 288 287 287 287 287 286 286 285
250 254 259 267 273 277 280 281 281 284 286 288 292 297 299 298 298 298 298 299 299 299 301 302 303 304 304 304 304 304 305 305 305 305 306 307 309 310 310 310 310 309 309 309 308 308 308 308 307 307 306 305 305 304 304 303 303 303 303 303 303 302 302 302 301 301 300 299 298 298 298 296 293 291 292 292 291 290 290 288 287 286 286 286 286 286 287 288
252 256 261 268 274 277 279 282 284 286 289 292 297 301 301 301 301 301 301 301 301 302 304 306 306 306 306 306 306 306 307 306 307 307 309 310 311 311 312 312 311 311 311 311 312 312 312 312 311 310 309 308 307 307 306 305 305 304 304 304 303 303 303 302 302 302 302 300 299 299 299 297 292 289 290 290 290 291 291 290 288 288 287 287 286 287 287 288
254 259 263 269 275 279 281 283 284 286 289 292 298 302 302 303 304 304 304 304 304 306 307 308 308 307 307 307 307 308 308 308 308 309 311 312 313 313 314 313 313 314 314 315 315 316 317 317 316 315 313 311 310 309 308 308 307 306 306 305 304 304 304 303 303 303 303 301 300 300 299 297 293 289 288 288 288 290 290 290 290 289 288 287 287 287 287 287
257 261 265 270 277 281 283 283 284 286 289 294 299 302 303 305 306 307 307 307 307 309 309 309 309 308 308 309 309 309 309 309 310 312 314 315 316 316 316 315 316 316 317 318 319 320 321 321 320 319 316 314 312 311 310 309 308 308 307 307 306 306 306 305 305 305 305 303 302 300 298 296 293 290 290 290 289 290 290 291 292 291 290 290 290 289 289 288
259 262 266 272 278 280 282 284 286 288 291 296 300 303 304 306 308 308 308 309 310 311 310 310 309 309 309 310 310 309 310 311 312 314 316 317 318 318 318 318 319 320 320 321 321 322 322 322 322 322 320 318 316 314 312 311 310 309 308 308 307 307 307 306 306 307 307 306 304 302 299 298 295 291 291 292 293 294 295 294 294 293 292 291 289 288 288 287
260 262 267 273 279 281 281 282 284 287 291 295 299 302 304 306 308 309 309 310 311 311 311 310 310 310 310 310 311 311 312 313 315 317 318 319 320 321 322 323 323 324 324 324 324 324 324 324 323 323 322 322 320 318 317 314 313 312 311 311 310 311 312 311 312 313 312 310 307 303 301 298 295 291 289 291 294 297 297 295 293 291 289 287 286 286 285 285
262 264 267 273 279 282 282 281 283 286 290 294 299 302 304 306 308 309 310 311 312 312 311 311 311 311 312 312 313 313 314 316 317 319 320 321 323 324 326 327 327 328 328 328 328 327 326 325 324 323 322 322 321 320 320 318 317 316 315 315 314 314 314 314 316 317 316 314 310 306 304 301 299 294 291 292 296 297 297 295 293 291 290 289 288 288 287 287
266 267 269 273 278 282 283 282 284 287 291 295 299 301 303 306 308 309 311 312 313 312 311 311 312 313 313 313 314 315 316 318 319 321 322 324 326 327 329 329 329 330 329 329 328 327 327 326 325 324 323 322 322 321 320 319 317 316 315 313 312 311 310 309 310 312 315 316 313 311 309 307 304 299 296 299 301 300 298 296 294 293 293 292 291 289 288 287
269 270 272 274 279 284 286 286 286 288 292 296 299 301 304 306 307 309 311 312 312 312 311 312 313 313 314 314 315 316 317 319 321 323 324 326 328 329 330 330 330 330 330 329 328 327 327 326 326 324 323 322 321 320 318 317 315 314 313 312 311 310 308 307 306 306 310 314 315 315 314 313 309 303 301 305 307 305 303 300 298 297 297 296 295 293 290 288
271 272 274 277 281 286 288 287 287 289 294 297 299 302 304 305 307 309 311 312 312 311 312 313 313 314 314 314 315 316 318 320 322 324 325 327 328 329 330 330 330 330 329 329 328 327 326 325 325 324 322 322 321 319 318 317 316 315 314 313 312 311 310 310 310 308 309 312 313 314 315 315 310 305 306 310 311 310 308 304 302 301 300 299 298 296 294 291
272 273 275 279 283 287 289 288 287 290 295 298 300 302 303 304 307 309 310 311 311 311 312 313 314 313 313 314 316 317 319 321 322 324 325 327 327 328 329 330 329 329 329 328 328 328 327 325 325 324 323 322 322 321 320 319 318 317 316 315 314 314 313 312 312 311 311 311 312 313 313 313 307 302 304 308 310 310 309 307 306 304 302 301 299 297 296 295
272 274 276 279 283 287 289 289 289 292 295 298 300 302 303 304 306 307 308 309 309 311 312 313 313 313 313 315 316 318 320 321 323 324 325 326 327 327 328 329 329 328 328 328 329 329 328 327 325 325 325 324 323 323 322 321 319 319 318 317 317 316 314 313 313 311 311 310 310 312 313 311 304 299 300 303 305 306 305 305 306 305 305 304 301 299 297 296
272 274 276 278 282 286 289 289 290 292 294 296 299 302 303 304 305 305 306 307 309 311 312 313 313 313 313 315 317 319 320 321 322 324 325 326 326 327 327 328 328 328 328 329 329 329 329 328 326 326 326 325 325 324 323 322 320 320 320 318 318 318 316 315 314 313 312 310 309 309 311 310 301 295 298 301 302 301 301 301 302 302 302 302 300 298 297 295
271 273 275 277 281 286 288 289 289 290 293 295 297 301 302 302 303 304 306 307 309 311 311 312 312 312 313 315 317 318 319 321 322 324 325 326 326 326 326 327 328 328 328 328 328 328 328 328 326 325 325 325 324 324 323 322 321 320 320 319 319 319 317 316 316 315 314 312 309 308 312 310 299 294 297 300 299 298 299 300 301 301 301 299 298 297 296 295
271 272 275 278 281 285 288 288 288 289 291 293 296 299 300 301 302 304 305 306 307 309 310 311 311 312 314 315 317 318 319 320 322 323 324 325 325 325 326 326 327 328 328 328 328 328 327 327 326 324 324 324 323 323 323 322 320 320 319 318 318 318 316 316 316 315 314 313 310 309 314 313 301 298 300 301 299 299 300 301 302 301 300 299 297 297 296 295
270 272 275 278 282 285 287 288 288 289 290 292 295 297 298 299 301 302 302 303 305 308 309 310 311 312 313 315 317 318 319 320 321 323 324 325 325 325 325 326 327 328 328 328 327 327 327 326 326 324 324 324 323 322 322 321 320 319 317 317 316 315 314 313 313 313 313 312 308 308 315 313 304 302 304 302 300 300 300 301 301 300 298 297 296 295 295 295
271 273 275 278 282 285 286 287 288 289 290 292 294 295 296 298 299 300 301 302 305 307 309 310 310 311 313 315 316 318 319 320 321 323 324 324 325 325 325 325 326 327 328 328 327 327 327 326 326 325 325 324 322 321 320 319 319 318 316 315 314 312 311 311 311 310 311 309 306 308 313 311 303 303 303 300 299 300 301 301 301 299 298 297 296 296 295 295
271 273 275 278 282 284 285 286 288 289 290 291 292 293 295 297 298 299 300 302 305 307 309 309 309 311 313 315 316 317 319 320 321 322 324 324 325 325 325 325 325 326 327 327 326 327 326 325 325 325 325 324 322 320 318 318 317 316 315 313 311 309 308 309 309 309 310 308 306 308 311 308 304 304 302 300 300 301 302 302 300 299 298 298 297 296 296 295
270 272 275 279 282 283 283 285 286 287 289 290 291 292 294 296 298 299 300 303 305 307 308 308 309 311 313 315 316 317 318 319 320 321 323 324 324 325 325 325 325 326 326 326 326 326 327 326 324 325 325 323 320 317 315 315 315 315 314 312 310 309 308 309 310 310 309 308 308 311 310 308 309 307 304 303 303 304 305 303 301 300 299 298 297 296 295 294
269 272 276 279 281 281 282 283 284 286 287 289 290 291 293 296 298 299 301 303 306 307 307 308 309 311 313 315 315 316 317 318 320 321 322 323 324 324 324 325 325 325 325 325 325 326 327 326 324 325 326 324 320 317 315 315 316 316 315 314 312 311 311 312 312 312 311 309 312 314 310 309 312 310 306 306 307 306 305 303 302 302 301 300 299 297 296 295
269 273 276 278 279 279 280 281 283 285 287 288 288 290 293 296 298 300 302 304 306 307 307 308 310 312 313 314 315 315 317 318 319 320 321 322 323 323 324 325 325 325 324 324 324 325 326 326 324 325 326 325 322 319 317 318 318 317 316 315 313 313 313 314 314 314 312 311 315 315 311 311 314 310 307 308 307 306 305 304 304 303 302 301 299 298 297 296
270 273 276 276 276 277 278 279 282 284 286 287 288 290 294 296 298 300 302 305 306 306 307 308 311 312 312 313 313 314 316 318 319 320 321 322 322 323 324 324 324 324 324 324 324 323 325 325 323 323 326 324 321 318 317 318 319 318 317 315 314 314 315 315 316 316 314 313 315 315 312 313 314 311 310 310 308 307 306 306 305 304 302 300 299 297 297 296
271 273 273 273 274 276 277 279 282 284 285 285 287 290 294 296 298 301 303 305 305 306 307 309 311 311 311 312 313 313 315 317 318 319 320 321 321 322 323 324 324 323 323 322 322 322 323 323 322 322 324 323 319 317 318 318 319 319 318 316 315 316 316 316 316 316 314 314 315 315 313 314 313 311 310 310 308 307 307 306 304 303 301 299 297 296 296 295
270 270 270 272 274 275 276 279 282 282 282 283 287 291 294 296 299 302 303 304 304 306 308 310 310 310 310 311 312 313 314 316 316 317 318 319 320 321 322 322 322 321 321 320 320 320 321 322 321 321 323 322 318 317 318 319 319 319 318 316 317 317 316 316 315 314 313 314 314 314 314 314 312 310 309 309 308 307 307 305 304 302 300 298 297 296 295 294
267 267 269 272 273 273 276 279 280 280 281 284 288 292 294 297 300 302 302 303 305 307 309 310 309 309 309 310 311 312 314 314 315 316 317 318 319 319 320 320 320 320 319 319 319 319 320 320 320 320 322 322 318 318 319 319 320 319 317 316 317 316 315 315 315 314 313 313 313 313 313 312 311 310 310 310 309 308 307 306 305 302 300 299 299 298 297 296
265 267 270 271 271 273 275 277 277 279 283 287 290 292 294 298 300 301 302 304 306 308 308 308 308 308 308 309 310 311 313 314 314 315 316 317 318 319 319 319 319 318 318 318 318 319 319 319 319 319 322 322 319 318 319 320 320 319 317 317 316 315 316 315 314 314 314 314 314 314 314 313 313 312 312 311 311 310 309 308 306 304 302 301 301 300 299 297
266 268 270 271 272 274 276 277 278 281 285 288 290 293 296 298 299 301 303 305 306 307 307 307 307 307 307 308 309 310 311 312 313 314 316 317 318 318 319 318 318 318 317 318 318 318 319 319 319 320 321 322 320 319 320 321 320 318 318 317 316 316 316 316 316 316 316 316 316 316 315 315 315 314 313 313 313 312 312 311 309 306 304 303 302 301 299 298